Hurricane Symbol View the latest observations near Atlantic Tropical Storm Alberto.

Station OWMO1 - Old Woman Creek Western Reserve Image indicating link to RSS feed of recent meteorological observations for station OWMO1


Conditions at OWMO1 as of
2000 GMT on 06/19/2024:
     

Click on the graph icon in the table below to see a time series plot of the last five days of that observation.

5-day plot - Wind Direction Wind Direction (WDIR): S ( 190 deg true )
5-day plot - Wind Speed Wind Speed (WSPD): 6.0 kts
5-day plot - Air Temperature Air Temperature (ATMP): 93.9 °F
5-day plot - Dew Point Dew Point (DEWP): 70.0 °F
5-day plot - Heat Index Heat Index (HEAT):100.0 °F
5-day plot - Wind Speed at 10 Meters Wind Speed at 10 meters (WSPD10M): 5.8 kts
5-day plot - Wind Speed at 20 Meters Wind Speed at 20 meters (WSPD20M): 7.8 kts
Previous observations
TIME
(GMT)
5-day plot - Wind Direction
WDIR
 
5-day plot - Wind Speed
WSPD
kts
5-day plot - Wind Gust
GST
kts
5-day plot - Wave Height
WVHT
ft
5-day plot - Dominant Wave Period
DPD
sec
5-day plot - Average Wave Period
APD
sec
5-day plot - Mean Wave Direction
MWD
 
5-day plot - Atmospheric Pressure
PRES
in
5-day plot - Pressure Tendency
PTDY
in
5-day plot - Air Temperature
ATMP
°F
5-day plot - Water Temperature
WTMP
°F
5-day plot - Dew Point
DEWP
°F
5-day plot - Salinity
SAL
psu
5-day plot - Visibility
VIS
nmi
5-day plot - Tide (above MLLW)
TIDE
ft
2024-06-19 1945 S 5.1------- 93.0- 70.3---
2024-06-19 1930 S 6.0------- 92.1- 70.2---
2024-06-19 1915 S 6.0------- 92.1- 70.7---
2024-06-19 1900 S 6.0------- 92.1- 71.4---
2024-06-19 1845 S 6.0------- 92.7- 71.2---
2024-06-19 1830 S 6.0------- 91.4- 71.2---
2024-06-19 1815 S 6.0------- 91.0- 71.4---
2024-06-19 1800 S 8.0------- 91.0- 71.4---
2024-06-19 1745 S 6.0------- 90.5- 73.2---
2024-06-19 1730 S 5.1------- 90.7- 72.9---
2024-06-19 1715SSE 5.1------- 90.1- 72.3---
2024-06-19 1700 S 5.1------- 90.9- 73.0---
2024-06-19 1645 S 2.9------- 90.3- 73.0---
2024-06-19 1630SSW 4.1------- 90.5- 72.7---
2024-06-19 1615SSW 4.1------- 89.6- 71.8---
2024-06-19 1600 S 4.1------- 89.6- 71.8---
2024-06-19 1545 S 4.1------- 89.8- 72.0---
2024-06-19 1530 S 2.9------- 89.2- 73.0---
2024-06-19 1515SSW 4.1------- 88.9- 73.6---
2024-06-19 1500 S 2.9------- 87.1- 73.8---
2024-06-19 1445SSW 2.9------- 85.1- 74.1---
2024-06-19 1430SSW 4.1------- 84.4- 73.8---
2024-06-19 1415 S 4.1------- 85.5- 73.6---
2024-06-19 1400 S 2.9------- 83.7- 73.0---
2024-06-19 1345SSW 4.1------- 82.8- 73.0---
2024-06-19 1330 S 4.1------- 82.0- 73.2---
2024-06-19 1315 S 2.9------- 79.9- 72.7---
2024-06-19 1300 S 6.0------- 79.0- 72.1---
2024-06-19 1245 S 4.1------- 78.8- 72.3---
2024-06-19 1230 S 1.9------- 78.4- 72.3---
2024-06-19 1215 S 1.9------- 77.7- 72.0---
2024-06-19 1200 S 2.9------- 77.2- 71.8---
2024-06-19 1145 S 1.9------- 76.3- 71.6---
2024-06-19 1130 SE 1.0------- 75.0- 71.2---
2024-06-19 1115 SE 1.0------- 74.8- 71.1---
2024-06-19 1100ESE 1.0------- 74.7- 70.9---
2024-06-19 1045SSE 1.0------- 74.8- 70.9---
2024-06-19 1030 S 1.0------- 74.8- 70.9---
2024-06-19 1015 S 2.9------- 74.8- 70.9---
2024-06-19 1000 S 1.9------- 74.8- 70.9---
2024-06-19 0945SSE 1.9------- 75.0- 70.7---
2024-06-19 0930 S 1.9------- 75.2- 70.9---
2024-06-19 0915SSE 2.9------- 75.2- 70.9---
2024-06-19 0900WSW 2.9------- 75.0- 71.1---
2024-06-19 0845WSW 1.9------- 75.9- 71.2---
2024-06-19 0830 S 1.9------- 76.5- 71.4---
2024-06-19 0815 S 1.9------- 76.8- 71.4---
2024-06-19 0800 S 2.9------- 77.2- 71.8---
2024-06-19 0745 S 4.1------- 77.5- 71.8---
2024-06-19 0730 S 4.1------- 77.5- 71.8---
2024-06-19 0715 S 2.9------- 77.4- 72.0---
2024-06-19 0700 S 4.1------- 77.7- 72.0---
2024-06-19 0645 S 2.9------- 78.4- 72.0---
2024-06-19 0630 S 4.1------- 78.4- 72.0---
2024-06-19 0615 S 4.1------- 78.6- 71.8---
2024-06-19 0600 S 5.1------- 79.5- 71.8---
2024-06-19 0545 S 5.1------- 79.7- 72.0---
2024-06-19 0530 S 5.1------- 78.8- 72.0---
2024-06-19 0515 S 4.1------- 78.4- 71.6---
2024-06-19 0500 S 4.1------- 78.6- 71.8---
2024-06-19 0445 S 2.9------- 78.4- 71.6---
2024-06-19 0430 S 2.9------- 78.8- 71.6---
2024-06-19 0415 S 2.9------- 79.0- 71.4---
2024-06-19 0400 S 2.9------- 79.3- 71.2---
2024-06-19 0345SSE 2.9------- 79.5- 71.4---
2024-06-19 0330SSE 4.1------- 80.1- 71.6---
2024-06-19 0315 S 4.1------- 80.6- 71.8---
2024-06-19 0300 S 4.1------- 80.8- 71.6---
2024-06-19 0245SSE 2.9------- 81.1- 72.0---
2024-06-19 0230SSE 2.9------- 81.5- 71.8---
2024-06-19 0215 SE 1.9------- 81.1- 71.1---
2024-06-19 0200SSE 1.9------- 82.2- 70.9---
2024-06-19 0145 S 1.9------- 83.5- 71.2---
2024-06-19 0130 S 1.9------- 84.6- 71.4---
2024-06-19 0115 S 1.9------- 85.3- 71.2---
2024-06-19 0100 S 1.9------- 86.2- 71.1---
2024-06-19 0045 S 2.9------- 86.9- 70.7---
2024-06-19 0030 S 4.1------- 87.6- 70.9---
2024-06-19 0015 S 2.9------- 88.9- 71.1---
2024-06-19 0000SSW 2.9------- 89.8- 70.9---
2024-06-18 2345SSW 2.9------- 89.8- 70.3---
2024-06-18 2330SSW 4.1------- 89.6- 69.6---
2024-06-18 2315SSW 5.1------- 90.0- 68.7---
2024-06-18 2300 SW 5.1------- 90.1- 68.9---
2024-06-18 2245SSW 5.1------- 90.7- 69.4---
2024-06-18 2230SSW 5.1------- 90.5- 69.3---
2024-06-18 2215 SW 6.0------- 90.3- 68.5---
2024-06-18 2200SSW 6.0------- 91.4- 69.6---
2024-06-18 2145 SW 5.1------- 92.5- 70.0---
2024-06-18 2130 SW 6.0------- 91.4- 69.6---
2024-06-18 2115 SW 8.0------- 91.4- 68.4---
2024-06-18 2100 SW 8.0------- 91.6- 68.5---
2024-06-18 2045 SW 8.0------- 91.2- 68.2---
2024-06-18 2030 SW 8.0------- 91.8- 68.0---
2024-06-18 2015SSW 7.0------- 93.4- 68.9---
2024-06-18 2000 SW 8.9------- 92.7- 67.6---